Theta_e
317 316 315 316 312 311 316 315 314 315 314 314 314 313 310 309 304 302 302 305 305 308 311 307 310 314 314 315 320 319 319 319 322 319 322 321 322 321 314 311 310 309 308 308 308 307 308 309 311 312 315 316 318 318 316 316 315 315 317 319 318 316 315 316 317 320 325 326 325 322 319 317 318 315
315 314 314 314 312 313 315 314 317 316 313 313 314 312 312 311 306 305 302 302 306 307 310 311 309 312 311 312 315 316 313 313 315 317 318 318 317 314 312 311 310 310 308 307 306 306 307 309 311 312 314 314 315 315 315 314 314 315 317 317 317 317 317 317 318 321 324 324 321 318 317 317 317 317
316 314 314 313 314 311 312 314 317 315 314 312 309 309 311 313 311 308 306 301 306 309 306 309 311 311 312 313 313 317 318 315 314 314 315 316 314 311 314 310 311 311 310 309 306 306 308 308 308 310 312 313 313 313 313 316 315 314 315 313 315 318 319 319 319 321 323 323 322 320 318 317 317 317
315 312 313 311 311 311 310 310 314 315 313 314 313 310 311 309 312 311 308 304 304 309 308 309 310 311 310 311 310 310 312 314 313 313 315 317 314 318 318 312 310 311 310 310 309 309 309 309 308 308 309 310 311 311 311 314 314 312 311 312 314 316 318 319 318 321 322 321 321 319 317 317 317 316
314 313 312 311 313 312 311 310 309 309 311 312 311 310 309 308 309 308 306 304 304 307 312 311 308 309 310 308 309 309 309 310 313 313 314 315 314 314 314 315 311 308 309 308 308 308 308 307 307 306 305 307 307 307 308 310 309 310 310 309 309 312 316 319 319 318 321 321 319 317 317 317 316 314
315 312 310 311 312 312 310 310 308 307 307 306 305 307 310 306 308 307 306 303 302 301 305 306 308 307 309 306 309 308 309 310 312 310 309 311 311 311 311 310 314 309 308 307 307 308 308 307 306 306 304 304 306 306 306 307 306 307 307 306 307 311 314 316 317 316 318 320 319 317 316 316 315 315
311 311 311 310 311 313 311 311 310 311 310 309 306 307 308 307 307 307 307 305 303 303 304 307 306 306 309 308 308 308 308 308 309 308 308 309 311 312 311 311 312 308 306 305 304 305 306 306 306 306 305 304 304 304 304 305 305 304 304 304 306 307 308 309 310 311 312 316 318 317 316 314 315 316
311 310 311 311 311 310 309 309 310 309 310 310 308 306 306 306 305 307 308 308 304 304 303 305 305 307 305 306 308 309 309 307 307 307 307 308 308 308 310 310 310 310 307 307 307 306 306 306 305 305 305 305 304 304 304 304 304 303 303 303 303 304 304 305 306 307 310 313 317 318 315 314 316 318
310 310 310 310 310 309 307 308 308 309 308 306 306 305 304 304 306 306 306 304 304 302 301 302 304 305 304 305 306 307 305 306 306 307 307 307 306 307 308 310 311 307 306 307 307 307 307 306 306 306 306 305 304 304 304 304 304 304 304 304 303 303 303 304 304 305 306 308 309 315 317 315 317 321
311 311 309 310 309 308 308 307 307 307 307 306 305 304 304 303 304 305 305 305 304 303 302 302 302 303 303 303 304 305 305 304 304 304 306 307 307 307 307 308 310 311 311 315 319 310 306 306 305 306 307 306 305 305 305 304 304 304 304 304 304 303 303 303 303 303 304 305 306 307 312 315 318 321
309 309 309 309 309 307 307 307 306 306 305 306 304 304 303 302 301 301 301 302 301 301 301 301 302 302 304 303 302 304 305 305 304 302 302 303 305 307 307 309 311 313 312 309 306 307 307 308 312 310 307 307 307 307 305 304 305 304 303 303 302 302 302 302 303 303 303 303 304 305 305 309 316 320
310 309 309 309 308 307 307 305 301 300 300 301 300 300 300 300 299 298 299 299 298 298 299 299 299 300 301 301 303 305 304 303 303 305 305 303 304 306 307 306 305 307 308 307 309 308 308 308 306 306 308 307 307 306 306 306 306 305 304 303 302 302 302 302 302 302 303 303 303 303 304 304 306 314
309 308 308 307 307 308 302 301 300 300 300 299 296 298 299 299 298 298 298 299 297 297 297 297 299 298 298 299 300 300 299 300 300 303 303 302 303 303 303 305 306 307 307 308 308 308 309 307 308 309 311 314 309 308 306 308 307 305 303 302 302 301 301 302 302 302 303 303 303 303 303 303 303 304
307 308 307 309 309 303 302 297 294 294 294 296 299 297 297 297 297 297 296 295 295 296 295 295 296 295 295 296 298 299 300 301 302 301 302 301 301 302 302 303 304 308 307 306 306 308 311 310 310 310 309 310 315 314 313 311 311 308 303 303 302 302 301 301 301 302 302 302 303 302 302 302 302 302
306 307 305 306 303 301 300 299 294 293 293 293 293 294 296 298 298 296 295 294 294 294 294 294 294 294 294 296 298 298 299 301 301 300 301 301 301 300 298 298 302 307 306 303 303 304 307 309 307 307 308 309 310 313 317 310 307 307 305 302 302 301 301 301 301 301 301 302 302 302 302 302 302 302
305 305 305 306 306 303 303 302 300 296 294 293 293 292 292 292 292 294 295 295 294 294 293 293 293 294 294 295 296 296 296 298 298 299 299 299 299 298 298 298 297 302 305 303 302 301 305 307 306 305 308 309 310 311 307 306 307 306 305 304 302 302 301 301 301 300 300 300 301 301 301 301 301 301
305 305 305 305 306 305 307 306 302 301 299 295 293 293 293 293 292 290 290 292 296 296 294 294 294 294 294 294 295 297 298 298 296 297 297 297 297 297 297 297 298 300 302 300 299 298 301 303 302 302 305 306 307 308 305 306 305 303 305 305 303 301 301 300 300 300 299 299 299 300 300 300 300 300
307 306 305 304 305 305 304 301 301 301 301 301 299 297 296 296 297 294 292 291 291 293 294 295 294 296 297 296 296 298 299 297 296 295 295 295 294 294 295 296 297 299 302 299 298 297 298 300 300 299 301 304 306 307 306 304 303 303 303 304 302 301 300 300 299 299 299 299 299 299 299 299 299 299
308 307 306 304 303 302 302 304 302 302 300 299 299 298 297 296 296 297 297 297 296 295 295 294 295 296 297 297 298 298 299 298 297 296 295 295 294 295 296 296 297 297 300 299 298 294 297 298 298 299 300 303 303 304 303 303 303 303 302 303 302 300 299 298 298 298 298 298 298 298 298 298 297 298
305 306 305 303 302 302 302 296 294 297 300 298 296 296 295 295 296 297 298 296 296 298 299 298 297 298 299 297 299 299 298 296 296 295 295 294 294 293 292 291 294 294 297 299 297 296 296 298 298 298 301 302 301 304 304 302 301 302 301 301 300 298 297 297 297 297 297 297 297 298 297 297 296 296
305 305 304 303 302 303 301 293 290 291 294 297 295 295 294 295 295 295 298 296 294 294 293 293 293 293 293 293 293 293 293 293 294 293 291 290 291 290 289 290 291 292 295 297 298 296 295 297 298 298 300 300 300 302 303 307 300 300 300 299 299 299 298 298 297 297 296 296 297 297 296 297 296 296
303 304 307 304 303 302 301 289 290 289 294 296 295 294 294 293 293 294 296 297 297 295 294 293 293 292 291 292 292 292 292 293 293 291 289 291 291 289 289 288 290 292 294 295 298 295 294 297 297 297 299 299 300 301 302 306 303 298 298 298 298 297 297 297 296 296 296 296 296 297 296 296 296 298
302 303 304 302 300 296 291 288 288 288 292 294 294 293 293 292 291 292 293 293 292 292 291 291 292 292 293 294 294 295 295 294 294 293 292 292 291 289 290 290 290 289 291 294 297 293 294 295 296 296 295 294 298 301 302 304 305 303 301 298 296 295 296 296 296 296 296 296 296 296 296 295 296 299
302 300 299 292 288 288 288 287 288 288 289 290 290 290 290 290 290 292 290 290 290 290 290 290 290 291 291 292 292 293 293 295 296 295 294 294 293 291 291 291 290 289 290 294 296 293 294 294 293 296 295 293 290 297 301 305 306 307 303 301 297 294 294 295 294 294 295 296 295 295 296 295 297 300
297 296 295 292 289 288 288 288 287 288 288 288 289 289 289 290 291 289 288 289 290 288 289 289 289 289 289 290 290 291 291 292 293 294 294 295 295 294 292 291 291 291 293 295 295 295 292 293 292 294 294 294 295 296 299 301 306 305 307 305 301 299 298 297 296 293 294 294 295 295 295 295 297 299
294 294 296 292 289 288 288 288 288 288 288 288 289 289 289 288 288 288 289 288 288 288 288 288 288 288 288 289 289 290 291 292 293 293 294 294 295 296 295 294 292 291 292 296 294 295 293 292 293 293 294 293 294 295 294 296 303 303 305 305 303 301 299 296 295 295 296 296 295 295 295 295 296 296
294 295 296 292 290 288 288 288 288 288 288 288 289 288 288 288 288 288 288 288 288 288 288 288 287 288 288 288 288 289 290 291 292 293 294 294 295 295 296 297 296 295 295 296 297 297 295 293 294 293 292 293 292 292 293 293 295 301 301 299 299 299 298 296 295 295 295 295 295 294 293 293 293 294
295 295 297 293 289 289 289 289 289 289 289 289 289 288 288 288 288 288 288 287 288 288 288 287 287 287 288 288 289 289 290 291 292 293 293 294 294 295 295 296 296 296 296 296 296 296 296 294 294 295 294 293 292 291 291 295 295 296 297 298 299 298 297 296 295 294 294 294 294 294 294 293 293 293
296 291 289 289 289 289 289 289 288 288 289 288 288 288 287 289 288 288 288 288 289 288 287 288 288 288 289 289 290 291 291 292 292 292 292 293 293 294 294 295 295 295 296 297 296 296 296 295 294 295 295 295 293 293 294 293 295 294 296 295 295 296 296 295 294 293 293 293 293 293 293 293 292 293
289 289 289 289 289 290 290 290 290 290 291 290 288 288 288 289 289 289 289 289 289 288 288 288 288 289 290 290 291 292 292 291 291 291 291 291 291 292 292 292 293 294 295 295 296 296 296 295 295 295 294 294 294 293 294 294 293 295 294 295 295 294 295 294 293 292 292 292 292 292 293 293 293 293
292 292 291 291 289 289 290 289 289 289 289 289 290 290 291 291 291 290 290 289 289 288 288 288 288 289 290 291 290 290 290 290 291 291 291 291 291 292 292 291 290 291 293 295 296 296 296 295 295 295 293 293 294 294 294 295 293 293 295 296 294 290 293 294 293 292 292 292 292 292 292 293 293 293
291 291 290 291 292 293 293 293 292 292 291 289 288 289 289 290 290 291 290 290 289 289 289 289 289 289 289 289 289 289 289 289 290 291 290 290 290 291 291 289 288 289 291 292 294 295 293 295 294 294 294 293 292 293 294 295 294 294 295 295 294 295 294 292 292 292 293 292 291 291 291 292 292 293
290 291 291 288 290 289 286 287 287 288 288 287 289 290 290 289 289 289 288 288 288 288 288 287 287 287 288 288 288 288 288 288 289 290 290 290 290 290 290 289 289 289 288 289 290 292 293 294 294 294 294 294 294 294 293 291 293 295 295 294 293 292 293 293 292 292 293 291 290 290 290 291 292 293
286 287 287 287 287 287 287 287 286 286 286 287 287 287 287 287 288 287 287 288 288 288 287 287 287 287 287 287 287 287 287 287 288 289 288 288 289 288 287 287 288 289 289 289 289 290 291 292 293 294 294 294 295 295 294 293 292 294 295 294 293 291 292 293 292 292 292 290 289 288 288 289 291 292
286 286 287 286 287 286 287 286 287 287 287 287 286 287 287 287 287 287 287 287 287 287 287 287 287 287 286 286 286 286 286 286 287 287 288 288 288 287 287 286 287 287 288 288 288 289 290 290 290 290 290 291 292 294 296 296 293 293 294 294 293 292 291 292 292 292 291 290 289 287 287 288 289 291
285 286 286 286 286 286 286 287 287 287 287 287 286 286 286 286 287 287 287 287 288 287 287 286 286 286 286 286 286 286 286 286 286 286 286 286 286 286 287 287 286 287 288 287 288 289 289 289 289 287 286 286 286 286 288 295 296 294 292 290 292 291 291 291 291 291 290 289 289 287 286 286 287 290
286 286 286 285 286 287 287 287 287 287 287 287 287 287 286 286 287 287 288 287 287 287 286 286 286 286 286 286 286 286 286 285 285 285 285 286 286 286 285 285 286 286 286 287 288 288 289 288 289 288 286 285 285 284 286 290 292 295 295 291 290 291 290 290 289 288 288 289 288 287 286 287 287 288
287 286 286 287 287 288 287 287 287 286 287 287 287 287 287 287 287 287 288 287 286 286 286 286 286 286 286 286 285 285 285 285 285 285 285 285 285 285 285 285 285 286 286 287 288 288 289 289 288 288 287 285 284 285 285 288 289 290 295 294 290 289 289 288 287 287 286 288 287 288 288 287 287 287
288 287 286 286 287 287 287 287 287 286 287 287 286 286 286 286 286 286 286 286 286 286 286 286 286 286 285 285 285 285 285 285 284 285 285 285 285 285 285 285 285 286 286 286 288 288 289 288 288 288 288 287 286 286 287 287 288 288 290 294 292 289 289 289 287 287 287 286 285 286 285 286 287 287
288 288 288 288 288 288 287 287 287 287 286 286 286 286 286 286 286 286 286 286 286 286 286 285 285 285 285 285 285 285 285 285 285 285 285 285 285 285 285 285 285 285 285 285 286 287 288 288 288 289 289 290 290 289 287 287 288 288 287 289 292 291 289 289 288 287 286 286 286 285 284 286 284 285
287 287 287 288 287 287 287 286 287 286 286 286 286 286 286 286 286 285 285 286 285 285 285 285 285 285 285 285 285 285 284 284 285 285 285 285 285 285 285 285 285 285 285 285 286 286 287 289 290 289 290 290 289 288 287 287 286 285 286 287 290 291 291 291 290 288 286 287 287 285 284 284 284 284
287 287 288 288 287 286 287 287 287 287 286 286 286 286 286 286 285 286 286 286 285 285 285 285 285 285 285 285 285 285 284 284 284 285 285 285 285 285 285 285 285 285 285 285 285 286 288 290 290 289 289 289 288 287 286 286 285 285 285 286 287 289 290 290 290 290 289 288 286 285 284 284 285 283
288 287 288 287 287 287 287 287 287 287 286 286 286 286 285 285 285 285 285 285 285 285 285 285 285 285 285 285 285 285 285 284 285 285 285 285 285 285 285 285 285 285 286 286 287 287 288 288 290 289 289 289 288 288 286 286 286 285 285 285 285 286 287 289 289 289 289 289 288 287 287 286 284 281
288 288 288 287 287 287 287 287 287 287 286 286 286 285 285 285 284 285 285 285 285 285 285 285 285 285 285 285 285 285 285 285 285 285 285 285 285 285 285 285 285 285 286 286 286 287 287 288 288 289 288 288 288 288 286 285 285 285 285 285 285 285 285 286 287 287 287 287 287 288 287 287 287 287
288 288 287 287 287 287 286 286 286 286 286 286 285 285 285 285 284 285 285 285 285 285 285 285 285 285 285 285 285 284 285 286 285 285 285 285 285 285 285 285 285 285 285 286 286 286 287 287 288 289 288 288 288 287 286 286 285 285 285 285 284 285 285 286 285 285 285 285 286 287 287 287 287 286
Wind_Speed
2 1 1 2 5 3 2 3 3 2 2 3 2 1 1 2 3 3 4 5 5 5 6 4 5 10 8 7 6 7 4 4 1 2 2 3 4 6 11 10 10 11 12 13 14 14 14 13 12 12 13 12 12 13 12 11 11 14 17 19 20 20 19 18 19 20 20 21 20 17 17 17 16 15
3 2 3 3 5 2 2 2 0 0 1 2 2 2 1 0 1 2 3 4 3 4 6 6 6 8 8 7 5 4 5 5 6 1 1 3 4 5 8 10 11 12 12 13 13 14 15 15 14 14 14 13 13 13 13 13 12 13 15 18 19 20 20 20 19 20 21 21 19 17 18 19 18 17
2 1 1 3 3 3 3 1 1 1 1 3 4 4 4 1 1 1 2 3 2 4 5 5 7 7 7 6 5 4 4 5 5 4 4 3 6 7 5 10 11 13 13 14 14 15 15 16 16 15 14 14 15 15 15 14 14 14 15 16 18 18 20 21 20 20 21 21 21 20 17 19 19 19
3 2 1 2 3 3 3 3 2 1 0 2 0 2 2 3 1 1 2 3 6 3 4 5 5 6 6 7 6 5 4 4 5 4 4 4 6 5 4 9 13 14 15 15 15 15 16 16 16 15 15 15 15 15 15 15 15 14 15 16 17 19 19 20 20 21 21 22 21 21 20 19 20 20
1 1 1 3 3 1 1 3 4 4 2 1 4 3 3 4 3 2 3 4 5 3 2 3 4 5 5 6 5 6 5 5 5 4 4 4 5 6 7 7 11 13 15 16 16 16 16 16 16 16 15 14 14 14 14 14 15 15 15 15 15 16 19 20 20 21 22 21 21 21 22 21 20 21
2 2 1 0 4 3 2 1 3 3 4 4 3 1 1 2 4 3 3 3 4 6 4 5 4 5 4 7 4 5 5 5 5 5 4 5 5 5 5 5 4 10 13 15 16 17 17 17 15 14 14 15 15 15 15 15 15 15 15 15 16 17 18 19 20 20 21 22 21 21 21 20 20 21
4 3 2 1 3 3 2 0 2 2 2 2 3 3 2 2 2 2 3 2 4 5 6 4 6 4 4 3 5 6 6 7 7 7 6 6 5 6 6 6 5 12 7 4 10 12 14 14 14 16 16 16 16 16 16 16 16 15 15 15 16 17 17 19 19 20 20 22 22 21 20 21 23 21
5 4 4 3 3 3 3 2 0 2 1 1 1 3 3 3 3 3 1 2 3 3 5 3 4 4 6 5 6 7 6 6 6 6 6 5 5 5 6 5 6 5 7 12 9 10 11 11 11 12 12 13 13 14 15 15 16 16 16 16 16 16 16 17 19 20 21 22 23 22 21 22 21 22
5 4 3 3 3 3 2 1 1 0 3 2 2 2 3 3 3 4 4 4 4 5 6 6 5 5 6 6 6 6 7 6 6 6 6 5 5 5 4 5 7 10 12 13 12 11 11 12 13 15 16 17 17 16 16 16 16 16 17 17 17 16 16 17 17 19 20 21 22 22 22 22 23 24
3 3 3 2 1 1 2 1 1 1 1 2 2 2 3 3 4 3 4 4 4 4 5 4 6 4 6 6 5 6 7 7 6 6 5 5 5 5 5 6 7 7 8 4 2 5 7 10 13 14 14 15 15 15 15 16 16 17 16 17 16 16 16 17 17 18 20 21 21 21 22 22 23 24
4 3 2 2 2 1 0 1 1 1 2 2 2 2 2 3 3 4 4 5 5 5 6 6 5 6 5 5 5 4 5 7 6 6 6 6 5 4 4 4 3 4 5 8 12 12 12 11 10 13 16 16 17 17 17 17 18 18 18 18 17 16 16 16 17 18 19 20 21 21 21 22 22 23
4 3 3 3 2 2 1 3 4 3 2 3 3 3 3 3 3 3 4 4 4 5 5 5 6 4 5 5 5 6 5 5 5 5 3 5 5 6 6 5 7 6 7 7 7 9 11 11 11 14 16 19 20 20 18 18 17 19 18 18 18 17 17 18 18 19 19 19 20 20 21 21 21 22
3 3 2 2 2 5 7 7 5 5 3 0 2 2 2 3 3 3 3 4 5 5 5 6 5 6 6 5 6 6 5 5 5 5 6 7 8 7 6 6 5 6 6 6 7 7 7 9 9 9 6 7 13 15 18 14 18 18 17 18 17 17 16 17 18 19 19 19 19 20 20 21 21 21
3 3 3 2 10 10 8 7 7 5 5 5 3 2 1 2 2 2 3 4 4 5 6 6 6 6 6 6 5 5 5 6 7 7 6 6 6 6 7 6 3 5 7 6 6 5 4 5 6 6 7 6 6 7 8 10 13 16 20 19 18 17 17 18 18 17 18 18 19 19 20 20 20 21
3 3 3 4 7 8 6 4 7 7 7 8 9 9 8 5 3 2 3 3 3 5 5 5 6 7 7 6 5 5 6 5 5 6 7 7 7 6 6 7 4 2 7 7 8 7 5 8 9 8 8 8 9 6 6 12 15 17 16 16 17 18 18 18 17 17 17 17 18 18 19 19 20 21
4 4 3 3 5 4 4 3 4 7 9 10 12 11 10 11 11 9 6 5 5 5 6 6 6 6 6 7 6 8 8 7 7 7 7 7 7 8 7 6 6 4 8 8 8 8 4 6 7 8 8 8 8 10 13 12 13 15 17 18 19 19 19 18 17 16 15 16 16 17 18 19 20 20
4 4 4 3 4 4 11 7 3 3 7 12 13 11 10 9 10 11 13 12 10 6 7 7 8 6 7 7 6 4 5 6 8 7 7 6 7 7 8 7 8 9 11 11 9 10 5 4 8 9 8 8 9 11 14 20 19 12 19 20 19 19 19 18 17 15 15 15 15 16 17 18 19 19
2 2 1 1 2 2 4 4 5 5 5 3 5 5 6 6 9 12 15 16 17 14 10 9 9 7 5 8 7 8 7 9 7 3 4 5 7 8 9 10 11 9 7 9 9 12 8 5 8 11 9 9 10 9 13 17 20 17 14 18 18 18 18 16 15 15 15 15 15 15 15 16 16 16
1 0 1 1 1 1 2 0 2 1 1 1 1 1 2 3 4 4 4 6 8 9 8 9 11 11 10 9 8 8 7 3 1 2 4 5 7 9 10 11 10 10 7 9 8 14 8 4 8 9 7 7 9 9 12 16 17 16 13 16 17 16 16 16 15 15 14 13 13 13 14 14 15 15
1 1 1 2 3 3 3 4 4 3 0 1 2 3 3 4 4 4 5 9 9 6 6 7 9 9 10 11 10 7 5 4 5 6 6 6 6 9 10 12 8 10 5 7 10 10 9 3 8 9 7 8 10 10 8 10 8 9 7 7 6 5 4 4 4 6 7 8 10 11 12 12 13 13
2 3 3 3 3 3 1 7 8 5 4 2 3 4 5 4 4 5 5 8 10 11 12 13 13 14 14 15 17 17 17 13 9 6 7 8 6 10 12 12 10 10 6 6 8 10 11 6 7 10 7 7 9 8 9 7 1 4 3 6 6 6 5 3 2 3 4 6 7 8 10 10 11 12
3 4 7 4 3 3 1 6 4 4 2 2 3 3 5 5 6 6 4 5 6 10 11 11 10 8 9 11 12 14 16 17 9 7 11 7 5 9 8 12 9 9 7 6 5 10 10 8 7 9 7 7 7 9 7 9 2 4 6 7 8 6 6 5 4 4 4 5 6 7 9 10 9 7
4 3 5 6 0 7 9 11 10 9 6 3 4 4 5 6 7 6 5 5 6 5 6 7 8 9 10 9 8 9 14 13 11 9 9 7 8 10 9 9 9 10 6 5 8 11 9 8 6 5 7 8 7 6 6 7 4 3 3 4 4 5 6 5 5 4 4 6 6 7 8 8 8 5
1 2 4 10 10 11 12 10 8 7 6 3 3 3 4 6 9 4 5 7 8 9 9 10 9 10 9 9 9 9 8 9 8 8 9 8 8 9 9 8 8 10 7 3 8 8 6 5 7 5 5 7 6 7 7 4 4 5 5 4 3 1 3 5 4 3 1 3 5 6 7 8 9 5
3 3 4 4 8 10 8 7 4 3 2 1 1 3 4 5 7 8 8 8 10 9 8 8 7 7 7 7 7 7 7 8 8 9 8 8 9 10 10 10 10 10 8 6 6 5 6 5 7 7 9 7 7 7 7 6 3 5 3 3 4 2 3 4 3 2 3 2 3 6 8 10 12 8
3 4 1 4 5 7 6 3 1 3 4 6 3 5 8 11 12 9 6 6 6 7 7 7 7 6 6 7 7 7 7 8 8 7 7 7 7 8 10 11 11 10 8 4 9 8 7 7 6 7 6 7 8 8 8 7 2 1 3 5 6 4 4 3 4 4 4 2 1 1 5 9 8 9
4 4 0 5 5 3 3 3 4 5 8 6 6 11 12 10 11 8 5 6 6 6 7 7 7 7 7 7 7 7 7 7 8 8 8 7 8 8 7 9 11 11 9 7 8 9 8 8 6 6 7 6 8 8 9 8 5 1 0 3 5 4 5 5 4 4 3 3 3 6 7 8 9 10
4 4 1 1 1 1 3 7 9 9 9 8 10 11 11 13 11 6 6 5 6 6 6 7 7 7 7 7 7 7 7 7 8 8 8 9 10 9 7 8 8 7 8 7 7 7 8 9 8 8 9 9 9 9 9 8 8 7 4 3 3 5 5 4 4 2 3 2 2 3 4 5 6 9
3 8 11 11 9 9 9 11 11 9 11 15 14 13 13 10 5 5 5 6 6 7 6 6 7 7 6 7 7 8 9 9 9 9 8 8 9 10 10 10 9 8 6 5 6 7 8 8 9 7 8 8 9 9 8 8 7 8 6 1 0 2 4 4 3 3 2 1 2 2 2 4 5 6
13 12 9 9 9 10 11 9 6 6 7 6 6 9 9 5 5 6 6 6 7 7 7 7 7 7 7 8 8 9 8 7 7 7 8 8 8 8 9 9 9 7 8 8 8 8 8 8 8 8 8 8 8 9 8 8 8 7 4 0 2 3 2 3 3 2 3 2 2 3 2 2 4 5
4 6 6 6 10 10 14 13 11 9 10 9 7 5 4 3 3 4 4 5 6 7 8 9 8 8 8 7 6 6 6 7 7 7 8 7 7 6 7 9 9 8 7 7 8 8 7 7 7 7 8 7 7 8 8 8 10 7 7 1 5 4 2 3 2 3 3 3 3 3 3 4 4 4
4 5 6 7 7 7 7 5 2 2 1 2 3 4 4 5 5 7 9 8 6 6 6 7 7 7 6 6 6 6 6 7 6 6 6 7 7 7 7 8 8 7 8 7 6 5 5 5 5 6 7 7 8 8 7 8 8 7 7 3 3 2 5 5 4 3 3 3 3 3 4 3 4 5
4 4 4 4 6 3 4 5 4 5 5 4 4 5 5 5 5 6 6 7 7 8 8 8 8 8 8 8 7 8 8 8 7 6 7 7 8 8 8 9 8 7 7 7 6 6 6 6 6 8 8 9 10 10 9 9 9 7 6 2 2 3 4 4 5 5 5 5 4 3 4 3 3 4
2 4 4 5 3 4 4 5 4 4 4 4 4 4 5 5 5 6 6 7 8 7 7 7 7 7 7 8 8 9 9 9 8 8 9 9 8 8 8 9 8 7 8 8 8 8 7 6 6 7 7 9 9 10 10 10 11 8 6 2 4 3 3 4 4 4 5 4 5 5 4 3 3 4
2 3 4 3 4 4 4 4 4 3 4 4 4 4 5 5 6 6 6 7 5 6 7 7 7 8 8 9 8 9 9 9 9 8 7 8 8 9 9 9 10 9 9 8 9 8 7 7 7 8 8 7 8 9 11 13 11 10 6 4 4 5 4 3 4 4 3 2 4 5 4 3 5 3
3 3 3 3 3 4 4 3 4 4 4 4 5 5 6 6 5 6 6 6 7 7 7 8 8 8 8 8 9 9 9 8 9 9 8 8 8 9 9 10 11 10 9 9 9 8 7 8 7 8 8 7 7 10 8 13 15 8 8 5 5 5 4 5 4 4 4 4 3 4 5 5 4 5
4 4 2 3 3 3 4 4 4 4 5 5 5 5 5 6 6 6 8 7 7 7 7 8 8 8 9 9 9 9 9 9 10 9 9 8 9 9 9 10 10 9 10 10 9 9 8 8 8 8 8 8 10 11 9 0 10 14 10 7 5 7 7 7 6 3 3 4 2 2 3 4 3 5
4 3 3 3 4 4 3 3 4 5 5 5 6 6 6 7 7 8 8 8 8 7 8 8 8 8 9 8 9 9 9 9 9 9 9 8 9 9 9 10 10 9 10 10 9 9 8 8 8 8 8 9 9 9 7 2 1 4 9 8 8 6 8 8 7 6 4 4 3 2 4 6 5 5
6 2 4 3 3 4 4 4 5 5 6 6 6 6 7 7 7 8 8 8 8 8 8 8 8 9 9 9 9 10 10 10 10 9 9 9 9 9 9 9 9 8 8 9 8 8 8 9 9 8 8 8 10 7 3 4 4 3 3 12 10 9 8 9 8 7 7 6 5 7 7 7 10 15
3 4 3 4 4 4 4 4 4 4 5 6 6 7 8 8 8 8 9 8 8 8 8 9 10 10 10 9 9 9 10 11 11 10 10 10 9 10 10 9 9 9 8 9 8 8 8 9 8 9 9 10 7 5 3 1 1 2 3 2 16 16 10 8 10 10 8 6 8 9 9 8 7 4
3 3 3 3 3 3 4 4 4 4 5 6 7 7 8 8 9 9 9 10 9 10 10 10 10 10 10 10 9 9 10 10 10 10 9 9 10 10 11 11 10 9 9 10 9 8 9 8 9 11 10 7 4 3 3 3 3 1 3 4 3 4 15 17 13 11 9 10 9 10 9 8 8 7
3 3 3 3 3 3 4 4 5 5 5 6 7 8 8 9 9 13 12 11 10 10 9 10 10 9 10 9 9 9 10 10 10 10 10 9 10 10 11 10 10 9 9 10 9 8 6 5 6 7 7 6 5 8 8 6 5 3 2 2 4 8 10 9 7 11 14 14 14 10 8 6 6 8
4 3 3 3 3 3 3 3 4 5 6 6 7 8 9 9 9 10 9 10 10 10 10 10 10 9 9 9 9 9 10 10 10 10 10 10 10 10 10 9 9 9 9 9 7 6 5 5 6 6 6 7 8 7 5 5 5 6 4 5 6 7 9 14 15 14 11 10 8 6 4 9 12 10
3 3 2 3 3 3 3 3 4 4 6 7 8 8 8 9 10 10 10 10 10 10 10 10 10 10 10 10 9 9 9 9 9 10 10 10 10 9 9 9 8 8 7 7 6 6 5 5 5 5 6 7 6 6 6 6 6 6 7 7 6 8 9 8 9 11 11 12 12 12 14 13 12 10
3 3 3 3 3 3 3 3 4 5 6 7 8 8 9 9 9 10 10 10 10 10 10 10 10 10 10 9 9 9 9 9 9 9 9 9 9 8 8 8 7 6 6 6 5 5 4 4 5 5 6 5 5 6 6 8 8 7 8 9 9 8 8 8 10 9 8 6 10 16 17 18 19 20
Wind_Direction
82 61 356 16 88 49 348 65 51 40 1 359 348 338 347 24 327 330 339 323 352 342 340 332 7 13 26 13 16 23 56 129 149 297 304 339 353 210 224 223 219 215 219 221 218 218 219 220 220 222 225 231 236 238 231 223 221 222 219 215 212 212 215 213 208 213 212 218 222 215 206 208 211 208
70 31 23 353 77 52 354 55 89 73 57 286 298 293 264 207 349 346 321 303 300 318 338 352 351 349 2 355 351 353 342 308 336 328 314 311 294 277 220 227 224 223 223 224 224 224 224 224 223 222 224 226 228 232 235 228 222 224 224 226 219 212 212 214 211 211 211 213 218 218 204 201 205 205
106 86 57 354 66 49 9 316 251 48 18 13 341 360 344 331 136 292 299 311 300 27 325 326 335 334 335 347 342 327 320 311 295 287 273 257 266 274 229 224 229 230 227 225 224 224 225 225 225 225 226 226 226 228 231 232 227 223 222 221 223 220 216 215 213 213 214 214 215 218 208 203 203 204
138 143 160 83 39 38 354 341 5 12 184 171 223 296 297 298 305 191 236 264 281 308 292 295 305 320 332 331 313 302 292 308 338 310 284 257 267 269 261 230 231 234 231 228 226 225 225 225 225 225 226 227 230 232 231 231 233 230 224 221 219 218 219 219 215 215 216 216 216 216 212 208 205 204
179 178 126 140 123 98 334 358 337 307 282 208 198 217 243 251 251 238 252 266 283 286 266 317 313 312 317 302 304 309 312 305 296 288 295 308 291 277 263 262 249 236 238 238 236 230 227 225 223 222 223 224 228 231 233 234 232 231 227 225 224 223 221 219 218 217 217 217 218 216 214 210 206 204
158 104 288 103 122 103 43 347 302 352 355 336 329 360 23 346 0 4 359 317 315 303 321 314 320 312 301 292 302 294 298 292 298 299 296 290 286 278 291 289 275 248 233 237 238 238 234 229 227 222 218 219 220 223 226 229 232 234 233 229 225 222 222 223 222 219 219 220 218 218 215 212 211 208
159 159 174 199 145 148 180 202 244 263 301 336 326 340 335 319 293 283 268 280 281 292 291 289 291 280 282 279 300 302 298 296 287 279 270 261 260 265 268 274 287 285 307 267 255 260 262 250 229 218 215 216 217 219 222 224 226 228 230 232 231 227 223 220 221 221 221 221 222 219 215 212 214 209
150 175 174 185 156 152 185 205 317 293 269 268 2 351 334 334 320 306 309 268 267 264 292 294 300 310 317 301 294 290 287 286 287 284 282 275 270 266 261 261 264 266 308 304 283 257 240 232 231 236 233 225 220 223 223 224 224 225 227 228 228 230 229 225 221 221 221 222 223 221 217 216 213 212
153 169 162 191 169 148 163 167 232 231 33 3 359 337 334 315 342 351 347 336 327 316 304 302 293 293 290 290 294 299 300 297 293 296 294 300 303 309 308 313 305 305 298 297 284 255 246 235 226 220 219 219 219 219 221 223 225 228 230 229 227 224 224 226 225 224 223 223 223 224 221 218 214 213
134 157 162 179 136 157 170 178 82 49 351 22 342 335 338 327 311 311 312 308 299 291 285 293 303 301 300 301 287 287 283 279 280 279 275 271 268 275 286 279 270 266 274 284 324 298 280 271 257 246 233 228 227 226 225 225 227 230 232 233 231 228 224 222 223 224 225 225 224 223 224 220 217 214
165 169 178 162 142 135 125 148 120 70 42 15 345 334 331 328 339 331 324 318 314 307 299 289 278 281 269 272 293 292 296 296 294 297 298 290 278 266 263 290 307 326 315 314 312 311 300 272 247 241 240 238 233 229 227 226 228 229 229 229 228 227 225 224 224 224 226 226 225 224 223 224 220 215
162 160 165 163 145 172 145 84 72 64 40 17 340 340 338 330 326 313 303 303 293 293 291 289 294 287 288 287 276 281 280 285 295 286 299 308 318 326 324 321 318 312 307 292 283 275 277 286 267 243 240 238 235 233 234 234 231 229 228 227 227 224 222 221 221 222 224 226 227 226 224 223 223 220
146 145 161 150 162 106 108 110 106 109 118 61 279 304 345 343 343 331 325 315 312 300 300 297 300 300 302 297 305 311 315 307 296 308 326 305 304 299 296 290 285 284 284 283 287 285 291 289 287 292 276 242 241 244 240 241 234 230 227 226 226 223 223 222 223 222 222 223 225 226 225 224 222 222
156 176 160 156 122 137 138 142 141 144 177 214 231 253 288 301 308 313 315 304 300 302 297 294 300 300 292 301 306 312 308 308 311 311 301 285 285 298 288 287 269 269 270 279 282 288 285 276 290 295 289 287 237 240 234 228 231 227 223 223 220 220 219 221 222 223 223 223 224 225 225 225 224 223
173 187 193 145 156 149 159 168 184 194 208 218 228 240 238 231 237 259 258 262 267 277 278 284 287 284 289 292 304 300 309 313 323 329 333 324 322 309 307 297 306 318 353 330 317 308 315 321 310 309 304 298 304 289 252 252 244 240 235 223 222 220 220 220 220 220 221 222 224 225 225 224 225 224
177 192 198 177 160 179 171 203 206 215 216 221 226 226 229 239 245 235 232 252 267 263 271 272 273 287 287 301 317 310 311 323 341 333 328 318 314 311 304 298 288 318 349 325 315 299 324 324 309 302 301 307 309 305 301 275 242 242 234 228 223 221 219 217 216 217 219 222 224 225 225 225 224 224
173 184 182 184 170 191 196 202 209 193 209 228 229 228 238 245 245 250 248 247 247 255 258 267 269 262 278 281 279 295 316 333 313 311 304 321 334 334 322 318 327 332 336 325 312 302 312 336 305 298 298 304 300 298 298 299 302 256 239 231 220 218 219 213 211 212 214 218 222 225 227 227 225 224
169 137 137 180 186 179 167 198 208 219 231 180 197 222 228 233 244 244 246 249 248 245 251 258 263 262 278 281 289 293 301 294 294 334 321 340 321 313 301 306 301 301 313 299 303 288 286 284 284 279 282 279 280 279 285 288 287 285 250 232 222 217 215 210 203 205 210 215 219 224 227 230 229 228
114 112 147 239 299 334 306 271 76 341 11 338 307 303 288 284 290 288 279 246 236 247 242 241 248 256 258 262 266 272 272 278 268 266 283 290 289 290 289 287 285 290 287 288 287 280 291 265 273 273 281 279 278 280 286 281 293 291 256 230 220 214 209 204 201 202 207 211 215 221 225 226 227 225
131 234 201 215 233 240 245 123 128 109 62 323 297 273 270 273 273 272 269 275 279 263 236 226 235 244 248 251 257 266 276 276 278 287 282 283 286 288 286 281 291 278 286 282 282 281 282 251 268 276 271 277 277 279 271 277 293 282 270 256 258 252 237 233 231 226 219 217 219 223 222 224 226 226
196 222 222 216 227 245 248 143 148 180 161 234 254 266 271 269 274 273 279 275 276 276 275 277 279 276 275 276 275 270 260 253 259 275 278 273 278 275 279 276 275 272 276 262 265 278 282 278 264 269 264 263 274 276 283 281 246 243 189 158 154 159 156 162 220 238 241 234 233 231 231 226 220 220
218 226 222 220 237 231 284 142 87 53 7 283 279 279 281 287 284 283 289 290 284 291 300 310 308 301 302 296 291 285 283 282 267 245 262 266 264 266 265 278 277 278 264 267 295 289 279 306 298 300 292 276 250 253 251 262 165 183 151 140 130 125 141 168 186 217 235 235 233 232 227 226 214 209
211 230 210 225 360 62 87 80 65 40 26 347 340 334 321 298 290 293 315 322 329 338 331 316 319 310 312 313 310 308 303 283 262 244 251 256 255 263 264 270 286 281 267 247 241 253 271 275 287 313 311 296 283 251 255 260 185 177 108 99 90 133 146 160 167 186 218 223 227 226 219 217 194 188
352 357 50 59 76 89 80 85 76 69 56 37 342 338 309 298 287 337 338 318 311 304 300 296 295 291 294 291 291 289 279 275 265 251 242 241 241 251 258 260 262 269 282 297 308 296 297 312 296 304 295 303 303 317 314 340 135 142 138 115 95 173 146 129 101 107 101 218 221 216 209 195 183 171
359 331 62 73 88 101 102 98 111 112 87 174 281 269 265 267 299 320 303 304 304 294 293 289 291 291 292 289 288 277 274 274 269 261 249 236 236 247 253 258 260 263 272 278 304 313 307 328 307 308 296 287 291 303 306 315 60 59 75 99 106 110 86 46 49 54 43 70 199 186 184 180 184 166
330 315 71 124 101 92 107 106 169 232 244 233 237 255 253 269 273 275 280 291 291 290 293 295 291 290 288 290 286 285 285 288 285 279 268 252 241 231 235 246 257 263 264 264 304 301 309 304 310 313 307 315 317 321 311 300 326 92 80 81 90 81 73 57 46 31 16 352 11 145 168 172 163 145
294 293 39 124 136 127 166 203 233 246 253 251 238 238 247 254 262 271 272 270 277 283 285 285 285 281 280 277 277 280 283 281 278 280 282 281 271 260 247 235 237 247 253 243 234 258 272 280 283 286 293 301 300 304 299 295 291 30 21 80 79 83 79 63 41 27 5 9 25 84 95 97 108 111
297 294 10 118 219 218 310 312 308 302 289 270 268 273 274 270 271 272 271 265 263 265 265 267 269 269 266 268 270 269 269 271 276 284 292 296 296 291 286 278 270 261 262 253 247 238 245 258 266 271 283 287 286 287 288 294 299 309 336 32 55 86 94 97 95 69 43 35 62 91 110 109 117 108
316 346 337 337 340 337 307 276 273 271 271 266 263 259 260 265 265 258 255 259 266 272 274 273 274 274 268 263 263 260 260 265 269 273 274 277 280 286 285 282 276 277 279 276 262 250 248 249 255 258 260 268 274 275 277 281 294 297 310 170 349 73 81 91 105 102 85 60 58 84 99 135 127 130
311 307 309 312 302 284 274 274 259 251 249 257 257 257 258 255 253 248 250 256 261 267 268 265 265 264 263 261 263 264 267 266 262 261 265 267 268 274 281 283 277 268 263 261 258 257 253 253 256 256 258 255 256 269 275 287 287 289 326 85 82 40 63 92 105 106 123 119 110 94 72 86 122 127
333 316 297 270 266 264 263 261 261 261 278 291 279 261 269 266 270 279 286 295 303 303 300 292 288 286 283 283 278 271 263 263 263 261 266 269 268 266 265 268 271 272 265 257 253 254 252 253 256 255 263 264 263 265 270 272 275 273 285 163 162 183 193 121 103 118 120 122 111 98 102 108 105 105
308 302 294 279 267 259 255 261 247 244 245 296 335 338 329 319 318 314 313 305 293 288 292 299 304 301 299 294 293 294 292 288 288 281 274 270 271 263 266 265 265 266 267 265 265 262 263 264 269 269 266 267 268 271 272 271 273 273 277 224 184 124 149 155 149 137 140 131 118 132 131 129 127 120
303 307 297 287 279 306 348 6 3 357 350 349 338 329 322 319 315 310 307 308 305 302 299 293 289 289 292 290 292 291 289 286 285 285 282 276 274 273 263 261 265 260 262 261 259 265 262 264 253 257 261 262 258 259 264 269 260 258 264 263 204 165 162 158 159 157 147 141 142 135 138 141 134 123
287 281 280 277 327 1 4 355 348 336 342 326 318 311 315 310 307 301 295 288 287 287 286 289 293 291 292 288 286 283 279 280 277 274 272 276 277 278 273 273 269 267 266 265 262 260 259 259 263 261 260 258 253 246 243 247 257 252 252 225 175 191 192 148 151 157 160 158 146 141 141 152 145 130
287 301 295 324 7 3 355 335 327 324 322 322 320 311 308 303 294 289 285 284 290 296 294 294 291 290 287 286 284 280 277 274 273 270 265 266 267 266 271 272 271 266 263 262 259 255 253 255 257 264 264 265 265 255 227 229 247 245 253 227 175 173 169 144 135 144 145 127 138 139 139 139 148 145
277 275 274 12 3 357 332 326 329 331 325 318 309 302 297 295 295 295 294 296 296 292 290 288 288 286 285 283 282 279 277 276 273 270 268 260 260 261 258 257 260 262 259 259 259 256 252 251 240 242 249 250 253 262 259 217 219 236 225 214 179 162 139 131 129 128 130 148 158 153 150 152 147 122
257 262 31 25 5 341 331 331 332 327 318 310 306 304 303 304 304 299 293 293 286 282 281 285 284 284 283 282 281 278 274 271 271 267 264 261 256 255 256 256 254 255 256 255 254 254 241 241 232 229 236 244 245 254 259 271 226 220 209 203 178 161 148 140 133 126 120 127 130 119 128 118 108 105
288 316 35 18 10 342 332 329 337 327 322 315 310 309 304 297 296 293 294 291 287 284 283 282 280 279 278 277 278 278 275 269 266 266 263 261 260 256 253 256 256 250 250 250 244 241 234 235 231 225 223 236 247 250 268 256 332 263 212 181 167 155 150 139 141 148 130 103 97 88 95 110 114 99
261 357 20 4 353 349 348 345 333 323 317 315 312 309 306 303 298 297 296 291 288 286 283 280 279 277 279 279 276 275 276 275 270 267 265 260 253 255 257 255 256 251 249 252 245 241 233 233 228 226 222 229 236 240 249 260 244 289 242 179 156 152 162 155 149 144 142 131 91 74 65 81 85 89
23 22 21 18 358 356 339 330 319 316 319 316 314 308 306 303 301 299 297 293 291 289 287 283 282 282 278 275 275 274 270 268 267 266 265 263 258 254 255 256 258 261 259 254 249 239 232 231 224 222 223 228 233 213 190 171 330 333 7 192 168 160 165 160 152 149 137 133 130 120 125 116 110 117
35 27 20 24 4 346 337 320 319 316 314 314 309 307 303 303 300 296 294 292 291 289 287 285 283 282 280 277 274 274 275 273 269 266 263 261 258 254 251 251 254 249 250 253 247 241 232 227 224 220 224 232 207 126 140 188 187 341 15 360 357 171 166 159 156 154 143 147 137 133 130 132 131 129
33 23 15 11 3 350 321 319 319 322 316 317 314 309 306 300 296 293 291 289 287 284 283 284 283 281 279 277 275 273 273 273 272 269 263 262 262 258 251 247 249 246 241 247 245 242 240 222 222 213 215 204 179 198 215 198 156 141 94 34 26 78 78 71 108 134 149 152 145 133 110 99 116 129
29 24 9 12 1 339 325 322 333 327 322 315 312 308 304 301 300 300 297 294 293 290 285 285 284 282 280 278 275 272 272 271 268 265 264 260 257 256 254 246 241 239 239 247 247 245 231 219 211 204 200 198 202 201 201 168 146 135 121 110 103 83 76 83 87 89 82 70 62 85 129 150 154 157
18 13 16 13 348 326 326 340 332 321 313 313 308 307 306 307 304 300 297 293 292 289 288 285 285 283 282 280 277 272 266 266 264 263 263 261 255 252 250 249 242 237 234 234 240 236 229 222 222 200 202 204 189 187 161 136 140 141 134 125 122 113 114 109 90 72 65 61 76 82 82 78 60 72
7 18 20 356 330 321 333 330 314 309 314 313 310 306 304 303 299 298 296 294 291 289 288 286 284 283 281 280 278 277 274 269 268 266 262 260 257 251 247 242 238 231 227 221 222 227 223 233 224 200 199 189 172 155 152 152 142 139 134 132 127 123 127 125 116 104 92 81 84 92 91 91 96 102